Location: Arrien
(43.3167°N, 0.1500°W)
Time: 23:16:12
(UTC+00:00)

Cosmos 1703 - Pass Details

Date: 15 October 2021
Orbit: 521 x 539 km, 82.5° (Epoch: 04 December)

Event Time Altitude Azimuth Distance (km) Brightness Sun altitude
Rises 18:12:20 0° 0° (N) 2,698 6.8 -10.7°
Reaches altitude 10° 18:14:40 10° 10° (N) 1,799 5.8 -11.2°
Maximum altitude 18:18:16 34° 76° (ENE) 901 3.9 -11.8°
Drops below altitude 10° 18:21:50 10° 142° (SE) 1,775 5.6 -12.5°
Sets 18:24:07 0° 152° (SSE) 2,656 6.5 -12.9°
